Torna al catalogo

STARLINK-31499

AttivoComunicazioniVLEO
NORAD 59217·PAYLOAD·🇺🇸 United States

Lanciato Mar 11, 2024 da Vandenberg Space Force Base

Loading…

Prossimi Passaggi (prossime 24 ore)

TLE

AggiornatoSource: CelesTrak SupGP

Epoca: Sep 14, 2026, 20:41 UTC

1 59217C 24046S   26257.86229167  .00001128  00000+0  33328-4 0  2574
2 59217  53.1597 352.2085 0001321  79.8489 341.7216 15.34376011    19

Traccia STARLINK-31499 in tempo reale con AllMySat

Download on the App Store